<?xml version="1.0" encoding="UTF-8" standalone="no" ?>
<gpx xmlns="http://www.topografix.com/GPX/1/1" xmlns:xsi="http://www.w3.org/2001/XMLSchema-instance" xsi:schemaLocation="http://www.topografix.com/GPX/1/1 http://www.topografix.com/GPX/1/1/gpx.xsd" version="1.1" creator="VisuGPX - https://www.visugpx.com">
  <metadata>
    <name>Q-Bike 281023 25 KM</name>
  </metadata>
  <trk>
    <name><![CDATA[RANDO 281023 25 KM-17844047]]></name>
    <extensions>
      <line xmlns="http://www.topografix.com/GPX/gpx_style/0/2">
        <color>0000FF</color>
        <width>4</width>
      </line>
    </extensions>
    <trkseg>
      <trkpt lat="50.41961" lon="3.86807">
        <ele>81</ele>
        <time>2023-10-22T09:55:25Z</time>
      </trkpt>
      <trkpt lat="50.41986" lon="3.86879">
        <ele>81</ele>
        <time>2023-10-22T09:55:37Z</time>
      </trkpt>
      <trkpt lat="50.41995" lon="3.86899">
        <ele>80</ele>
        <time>2023-10-22T09:55:41Z</time>
      </trkpt>
      <trkpt lat="50.42001" lon="3.86907">
        <ele>80</ele>
        <time>2023-10-22T09:55:43Z</time>
      </trkpt>
      <trkpt lat="50.42018" lon="3.86922">
        <ele>81</ele>
        <time>2023-10-22T09:55:47Z</time>
      </trkpt>
      <trkpt lat="50.4209" lon="3.86969">
        <ele>83</ele>
        <time>2023-10-22T09:56:05Z</time>
      </trkpt>
      <trkpt lat="50.42102" lon="3.86982">
        <ele>82</ele>
        <time>2023-10-22T09:56:09Z</time>
      </trkpt>
      <trkpt lat="50.42099" lon="3.86992">
        <ele>81</ele>
        <time>2023-10-22T09:56:10Z</time>
      </trkpt>
      <trkpt lat="50.42101" lon="3.87004">
        <ele>81</ele>
        <time>2023-10-22T09:56:12Z</time>
      </trkpt>
      <trkpt lat="50.42106" lon="3.8701">
        <ele>81</ele>
        <time>2023-10-22T09:56:14Z</time>
      </trkpt>
      <trkpt lat="50.42114" lon="3.87011">
        <ele>81</ele>
        <time>2023-10-22T09:56:16Z</time>
      </trkpt>
      <trkpt lat="50.42121" lon="3.87024">
        <ele>80</ele>
        <time>2023-10-22T09:56:18Z</time>
      </trkpt>
      <trkpt lat="50.42191" lon="3.87101">
        <ele>77</ele>
        <time>2023-10-22T09:56:38Z</time>
      </trkpt>
      <trkpt lat="50.42203" lon="3.87138">
        <ele>77</ele>
        <time>2023-10-22T09:56:44Z</time>
      </trkpt>
      <trkpt lat="50.42221" lon="3.87221">
        <ele>77</ele>
        <time>2023-10-22T09:56:57Z</time>
      </trkpt>
      <trkpt lat="50.42285" lon="3.87389">
        <ele>75</ele>
        <time>2023-10-22T09:57:27Z</time>
      </trkpt>
      <trkpt lat="50.42291" lon="3.87417">
        <ele>75</ele>
        <time>2023-10-22T09:57:31Z</time>
      </trkpt>
      <trkpt lat="50.42291" lon="3.87431">
        <ele>75</ele>
        <time>2023-10-22T09:57:33Z</time>
      </trkpt>
      <trkpt lat="50.42284" lon="3.87477">
        <ele>77</ele>
        <time>2023-10-22T09:57:40Z</time>
      </trkpt>
      <trkpt lat="50.42259" lon="3.87572">
        <ele>79</ele>
        <time>2023-10-22T09:57:55Z</time>
      </trkpt>
      <trkpt lat="50.42238" lon="3.87574">
        <ele>79</ele>
        <time>2023-10-22T09:58:00Z</time>
      </trkpt>
      <trkpt lat="50.42234" lon="3.87645">
        <ele>78</ele>
        <time>2023-10-22T09:58:11Z</time>
      </trkpt>
      <trkpt lat="50.42325" lon="3.87651">
        <ele>77</ele>
        <time>2023-10-22T09:58:32Z</time>
      </trkpt>
      <trkpt lat="50.42333" lon="3.87649">
        <ele>77</ele>
        <time>2023-10-22T09:58:34Z</time>
      </trkpt>
      <trkpt lat="50.42341" lon="3.87644">
        <ele>77</ele>
        <time>2023-10-22T09:58:36Z</time>
      </trkpt>
      <trkpt lat="50.42353" lon="3.87619">
        <ele>77</ele>
        <time>2023-10-22T09:58:41Z</time>
      </trkpt>
      <trkpt lat="50.42373" lon="3.87604">
        <ele>76</ele>
        <time>2023-10-22T09:58:46Z</time>
      </trkpt>
      <trkpt lat="50.42383" lon="3.87591">
        <ele>75</ele>
        <time>2023-10-22T09:58:49Z</time>
      </trkpt>
      <trkpt lat="50.42406" lon="3.87521">
        <ele>72</ele>
        <time>2023-10-22T09:59:01Z</time>
      </trkpt>
      <trkpt lat="50.4243" lon="3.87478">
        <ele>71</ele>
        <time>2023-10-22T09:59:09Z</time>
      </trkpt>
      <trkpt lat="50.42473" lon="3.87411">
        <ele>70</ele>
        <time>2023-10-22T09:59:23Z</time>
      </trkpt>
      <trkpt lat="50.42476" lon="3.87396">
        <ele>70</ele>
        <time>2023-10-22T09:59:26Z</time>
      </trkpt>
      <trkpt lat="50.42475" lon="3.87388">
        <ele>70</ele>
        <time>2023-10-22T09:59:27Z</time>
      </trkpt>
      <trkpt lat="50.4248" lon="3.8737">
        <ele>70</ele>
        <time>2023-10-22T09:59:30Z</time>
      </trkpt>
      <trkpt lat="50.42491" lon="3.8735">
        <ele>69</ele>
        <time>2023-10-22T09:59:34Z</time>
      </trkpt>
      <trkpt lat="50.42498" lon="3.87327">
        <ele>69</ele>
        <time>2023-10-22T09:59:37Z</time>
      </trkpt>
      <trkpt lat="50.42506" lon="3.87314">
        <ele>70</ele>
        <time>2023-10-22T09:59:40Z</time>
      </trkpt>
      <trkpt lat="50.4251" lon="3.87299">
        <ele>70</ele>
        <time>2023-10-22T09:59:43Z</time>
      </trkpt>
      <trkpt lat="50.42544" lon="3.87217">
        <ele>73</ele>
        <time>2023-10-22T09:59:57Z</time>
      </trkpt>
      <trkpt lat="50.42543" lon="3.87194">
        <ele>73</ele>
        <time>2023-10-22T10:00:01Z</time>
      </trkpt>
      <trkpt lat="50.42547" lon="3.87192">
        <ele>73</ele>
        <time>2023-10-22T10:00:02Z</time>
      </trkpt>
      <trkpt lat="50.4256" lon="3.8716">
        <ele>74</ele>
        <time>2023-10-22T10:00:07Z</time>
      </trkpt>
      <trkpt lat="50.42558" lon="3.87131">
        <ele>76</ele>
        <time>2023-10-22T10:00:12Z</time>
      </trkpt>
      <trkpt lat="50.42576" lon="3.87088">
        <ele>76</ele>
        <time>2023-10-22T10:00:19Z</time>
      </trkpt>
      <trkpt lat="50.42595" lon="3.87058">
        <ele>75</ele>
        <time>2023-10-22T10:00:25Z</time>
      </trkpt>
      <trkpt lat="50.42597" lon="3.87035">
        <ele>75</ele>
        <time>2023-10-22T10:00:29Z</time>
      </trkpt>
      <trkpt lat="50.42603" lon="3.8702">
        <ele>75</ele>
        <time>2023-10-22T10:00:32Z</time>
      </trkpt>
      <trkpt lat="50.42605" lon="3.87002">
        <ele>74</ele>
        <time>2023-10-22T10:00:34Z</time>
      </trkpt>
      <trkpt lat="50.42619" lon="3.86963">
        <ele>69</ele>
        <time>2023-10-22T10:00:41Z</time>
      </trkpt>
      <trkpt lat="50.42617" lon="3.86936">
        <ele>67</ele>
        <time>2023-10-22T10:00:45Z</time>
      </trkpt>
      <trkpt lat="50.42625" lon="3.86896">
        <ele>63</ele>
        <time>2023-10-22T10:00:51Z</time>
      </trkpt>
      <trkpt lat="50.42629" lon="3.8684">
        <ele>59</ele>
        <time>2023-10-22T10:01:00Z</time>
      </trkpt>
      <trkpt lat="50.42636" lon="3.86808">
        <ele>57</ele>
        <time>2023-10-22T10:01:05Z</time>
      </trkpt>
      <trkpt lat="50.4264" lon="3.86801">
        <ele>57</ele>
        <time>2023-10-22T10:01:06Z</time>
      </trkpt>
      <trkpt lat="50.42641" lon="3.86788">
        <ele>56</ele>
        <time>2023-10-22T10:01:08Z</time>
      </trkpt>
      <trkpt lat="50.4263" lon="3.8673">
        <ele>56</ele>
        <time>2023-10-22T10:01:17Z</time>
      </trkpt>
      <trkpt lat="50.42704" lon="3.86729">
        <ele>53</ele>
        <time>2023-10-22T10:01:34Z</time>
      </trkpt>
      <trkpt lat="50.42705" lon="3.86757">
        <ele>53</ele>
        <time>2023-10-22T10:01:38Z</time>
      </trkpt>
      <trkpt lat="50.42708" lon="3.8677">
        <ele>53</ele>
        <time>2023-10-22T10:01:41Z</time>
      </trkpt>
      <trkpt lat="50.4272" lon="3.86782">
        <ele>52</ele>
        <time>2023-10-22T10:01:44Z</time>
      </trkpt>
      <trkpt lat="50.42714" lon="3.86782">
        <ele>52</ele>
        <time>2023-10-22T10:01:45Z</time>
      </trkpt>
      <trkpt lat="50.42707" lon="3.86789">
        <ele>53</ele>
        <time>2023-10-22T10:01:47Z</time>
      </trkpt>
      <trkpt lat="50.42694" lon="3.86861">
        <ele>55</ele>
        <time>2023-10-22T10:01:58Z</time>
      </trkpt>
      <trkpt lat="50.42685" lon="3.86931">
        <ele>60</ele>
        <time>2023-10-22T10:02:09Z</time>
      </trkpt>
      <trkpt lat="50.42665" lon="3.87016">
        <ele>69</ele>
        <time>2023-10-22T10:02:22Z</time>
      </trkpt>
      <trkpt lat="50.42644" lon="3.87086">
        <ele>74</ele>
        <time>2023-10-22T10:02:34Z</time>
      </trkpt>
      <trkpt lat="50.4263" lon="3.8712">
        <ele>75</ele>
        <time>2023-10-22T10:02:40Z</time>
      </trkpt>
      <trkpt lat="50.42742" lon="3.87236">
        <ele>64</ele>
        <time>2023-10-22T10:03:11Z</time>
      </trkpt>
      <trkpt lat="50.42799" lon="3.87239">
        <ele>56</ele>
        <time>2023-10-22T10:03:25Z</time>
      </trkpt>
      <trkpt lat="50.42822" lon="3.87255">
        <ele>54</ele>
        <time>2023-10-22T10:03:30Z</time>
      </trkpt>
      <trkpt lat="50.42836" lon="3.87257">
        <ele>53</ele>
        <time>2023-10-22T10:03:34Z</time>
      </trkpt>
      <trkpt lat="50.42873" lon="3.87229">
        <ele>53</ele>
        <time>2023-10-22T10:03:43Z</time>
      </trkpt>
      <trkpt lat="50.4293" lon="3.87161">
        <ele>52</ele>
        <time>2023-10-22T10:04:00Z</time>
      </trkpt>
      <trkpt lat="50.42976" lon="3.87118">
        <ele>53</ele>
        <time>2023-10-22T10:04:13Z</time>
      </trkpt>
      <trkpt lat="50.42986" lon="3.87117">
        <ele>54</ele>
        <time>2023-10-22T10:04:15Z</time>
      </trkpt>
      <trkpt lat="50.42997" lon="3.87121">
        <ele>55</ele>
        <time>2023-10-22T10:04:18Z</time>
      </trkpt>
      <trkpt lat="50.43005" lon="3.87121">
        <ele>55</ele>
        <time>2023-10-22T10:04:19Z</time>
      </trkpt>
      <trkpt lat="50.43009" lon="3.87126">
        <ele>55</ele>
        <time>2023-10-22T10:04:21Z</time>
      </trkpt>
      <trkpt lat="50.43031" lon="3.87132">
        <ele>55</ele>
        <time>2023-10-22T10:04:26Z</time>
      </trkpt>
      <trkpt lat="50.43048" lon="3.8714">
        <ele>55</ele>
        <time>2023-10-22T10:04:30Z</time>
      </trkpt>
      <trkpt lat="50.43095" lon="3.87168">
        <ele>54</ele>
        <time>2023-10-22T10:04:42Z</time>
      </trkpt>
      <trkpt lat="50.43101" lon="3.87174">
        <ele>53</ele>
        <time>2023-10-22T10:04:43Z</time>
      </trkpt>
      <trkpt lat="50.43128" lon="3.87262">
        <ele>52</ele>
        <time>2023-10-22T10:04:58Z</time>
      </trkpt>
      <trkpt lat="50.43135" lon="3.87248">
        <ele>51</ele>
        <time>2023-10-22T10:05:01Z</time>
      </trkpt>
      <trkpt lat="50.43171" lon="3.87328">
        <ele>48</ele>
        <time>2023-10-22T10:05:15Z</time>
      </trkpt>
      <trkpt lat="50.43175" lon="3.8733">
        <ele>47</ele>
        <time>2023-10-22T10:05:16Z</time>
      </trkpt>
      <trkpt lat="50.43201" lon="3.87379">
        <ele>45</ele>
        <time>2023-10-22T10:05:26Z</time>
      </trkpt>
      <trkpt lat="50.43203" lon="3.8739">
        <ele>45</ele>
        <time>2023-10-22T10:05:27Z</time>
      </trkpt>
      <trkpt lat="50.43199" lon="3.87419">
        <ele>45</ele>
        <time>2023-10-22T10:05:32Z</time>
      </trkpt>
      <trkpt lat="50.43203" lon="3.8743">
        <ele>45</ele>
        <time>2023-10-22T10:05:34Z</time>
      </trkpt>
      <trkpt lat="50.43224" lon="3.87436">
        <ele>43</ele>
        <time>2023-10-22T10:05:39Z</time>
      </trkpt>
      <trkpt lat="50.43242" lon="3.87462">
        <ele>43</ele>
        <time>2023-10-22T10:05:44Z</time>
      </trkpt>
      <trkpt lat="50.43266" lon="3.87477">
        <ele>44</ele>
        <time>2023-10-22T10:05:50Z</time>
      </trkpt>
      <trkpt lat="50.43276" lon="3.8745">
        <ele>44</ele>
        <time>2023-10-22T10:05:55Z</time>
      </trkpt>
      <trkpt lat="50.43306" lon="3.87457">
        <ele>46</ele>
        <time>2023-10-22T10:06:02Z</time>
      </trkpt>
      <trkpt lat="50.43447" lon="3.87534">
        <ele>52</ele>
        <time>2023-10-22T10:06:37Z</time>
      </trkpt>
      <trkpt lat="50.43423" lon="3.87531">
        <ele>53</ele>
        <time>2023-10-22T10:06:43Z</time>
      </trkpt>
      <trkpt lat="50.43409" lon="3.87546">
        <ele>55</ele>
        <time>2023-10-22T10:06:46Z</time>
      </trkpt>
      <trkpt lat="50.43407" lon="3.87566">
        <ele>56</ele>
        <time>2023-10-22T10:06:49Z</time>
      </trkpt>
      <trkpt lat="50.43393" lon="3.87544">
        <ele>55</ele>
        <time>2023-10-22T10:06:54Z</time>
      </trkpt>
      <trkpt lat="50.43373" lon="3.87536">
        <ele>54</ele>
        <time>2023-10-22T10:06:59Z</time>
      </trkpt>
      <trkpt lat="50.43352" lon="3.87538">
        <ele>54</ele>
        <time>2023-10-22T10:07:04Z</time>
      </trkpt>
      <trkpt lat="50.43319" lon="3.87555">
        <ele>54</ele>
        <time>2023-10-22T10:07:12Z</time>
      </trkpt>
      <trkpt lat="50.43311" lon="3.87603">
        <ele>54</ele>
        <time>2023-10-22T10:07:19Z</time>
      </trkpt>
      <trkpt lat="50.43299" lon="3.87652">
        <ele>53</ele>
        <time>2023-10-22T10:07:27Z</time>
      </trkpt>
      <trkpt lat="50.43311" lon="3.87699">
        <ele>55</ele>
        <time>2023-10-22T10:07:35Z</time>
      </trkpt>
      <trkpt lat="50.43315" lon="3.87732">
        <ele>55</ele>
        <time>2023-10-22T10:07:40Z</time>
      </trkpt>
      <trkpt lat="50.43345" lon="3.87773">
        <ele>58</ele>
        <time>2023-10-22T10:07:49Z</time>
      </trkpt>
      <trkpt lat="50.43366" lon="3.87794">
        <ele>60</ele>
        <time>2023-10-22T10:07:55Z</time>
      </trkpt>
      <trkpt lat="50.43463" lon="3.8787">
        <ele>64</ele>
        <time>2023-10-22T10:08:20Z</time>
      </trkpt>
      <trkpt lat="50.43578" lon="3.87946">
        <ele>64</ele>
        <time>2023-10-22T10:08:49Z</time>
      </trkpt>
      <trkpt lat="50.43503" lon="3.88265">
        <ele>64</ele>
        <time>2023-10-22T10:09:40Z</time>
      </trkpt>
      <trkpt lat="50.4347" lon="3.88423">
        <ele>62</ele>
        <time>2023-10-22T10:10:05Z</time>
      </trkpt>
      <trkpt lat="50.43364" lon="3.88434">
        <ele>58</ele>
        <time>2023-10-22T10:10:29Z</time>
      </trkpt>
      <trkpt lat="50.43227" lon="3.88429">
        <ele>54</ele>
        <time>2023-10-22T10:11:01Z</time>
      </trkpt>
      <trkpt lat="50.432" lon="3.88432">
        <ele>54</ele>
        <time>2023-10-22T10:11:08Z</time>
      </trkpt>
      <trkpt lat="50.43181" lon="3.8844">
        <ele>53</ele>
        <time>2023-10-22T10:11:12Z</time>
      </trkpt>
      <trkpt lat="50.4314" lon="3.88451">
        <ele>53</ele>
        <time>2023-10-22T10:11:22Z</time>
      </trkpt>
      <trkpt lat="50.4317" lon="3.88443">
        <ele>53</ele>
        <time>2023-10-22T10:11:29Z</time>
      </trkpt>
      <trkpt lat="50.43165" lon="3.88439">
        <ele>53</ele>
        <time>2023-10-22T10:11:30Z</time>
      </trkpt>
      <trkpt lat="50.43108" lon="3.8844">
        <ele>53</ele>
        <time>2023-10-22T10:11:44Z</time>
      </trkpt>
      <trkpt lat="50.43099" lon="3.88553">
        <ele>54</ele>
        <time>2023-10-22T10:12:01Z</time>
      </trkpt>
      <trkpt lat="50.43056" lon="3.8896">
        <ele>60</ele>
        <time>2023-10-22T10:13:02Z</time>
      </trkpt>
      <trkpt lat="50.43049" lon="3.88994">
        <ele>61</ele>
        <time>2023-10-22T10:13:07Z</time>
      </trkpt>
      <trkpt lat="50.43045" lon="3.89042">
        <ele>64</ele>
        <time>2023-10-22T10:13:15Z</time>
      </trkpt>
      <trkpt lat="50.43044" lon="3.89069">
        <ele>66</ele>
        <time>2023-10-22T10:13:19Z</time>
      </trkpt>
      <trkpt lat="50.43057" lon="3.89102">
        <ele>70</ele>
        <time>2023-10-22T10:13:24Z</time>
      </trkpt>
      <trkpt lat="50.43056" lon="3.89116">
        <ele>71</ele>
        <time>2023-10-22T10:13:26Z</time>
      </trkpt>
      <trkpt lat="50.43049" lon="3.89137">
        <ele>71</ele>
        <time>2023-10-22T10:13:30Z</time>
      </trkpt>
      <trkpt lat="50.43047" lon="3.89212">
        <ele>74</ele>
        <time>2023-10-22T10:13:41Z</time>
      </trkpt>
      <trkpt lat="50.43053" lon="3.89239">
        <ele>76</ele>
        <time>2023-10-22T10:13:45Z</time>
      </trkpt>
      <trkpt lat="50.43062" lon="3.89263">
        <ele>78</ele>
        <time>2023-10-22T10:13:50Z</time>
      </trkpt>
      <trkpt lat="50.4306" lon="3.89297">
        <ele>78</ele>
        <time>2023-10-22T10:13:55Z</time>
      </trkpt>
      <trkpt lat="50.43067" lon="3.89329">
        <ele>80</ele>
        <time>2023-10-22T10:14:00Z</time>
      </trkpt>
      <trkpt lat="50.43066" lon="3.89366">
        <ele>78</ele>
        <time>2023-10-22T10:14:05Z</time>
      </trkpt>
      <trkpt lat="50.43068" lon="3.89398">
        <ele>77</ele>
        <time>2023-10-22T10:14:10Z</time>
      </trkpt>
      <trkpt lat="50.43075" lon="3.89419">
        <ele>77</ele>
        <time>2023-10-22T10:14:13Z</time>
      </trkpt>
      <trkpt lat="50.43089" lon="3.8944">
        <ele>77</ele>
        <time>2023-10-22T10:14:18Z</time>
      </trkpt>
      <trkpt lat="50.43099" lon="3.89468">
        <ele>77</ele>
        <time>2023-10-22T10:14:23Z</time>
      </trkpt>
      <trkpt lat="50.43106" lon="3.89497">
        <ele>75</ele>
        <time>2023-10-22T10:14:27Z</time>
      </trkpt>
      <trkpt lat="50.43118" lon="3.89523">
        <ele>75</ele>
        <time>2023-10-22T10:14:32Z</time>
      </trkpt>
      <trkpt lat="50.43135" lon="3.89571">
        <ele>72</ele>
        <time>2023-10-22T10:14:40Z</time>
      </trkpt>
      <trkpt lat="50.43143" lon="3.89583">
        <ele>72</ele>
        <time>2023-10-22T10:14:43Z</time>
      </trkpt>
      <trkpt lat="50.43182" lon="3.89611">
        <ele>74</ele>
        <time>2023-10-22T10:14:53Z</time>
      </trkpt>
      <trkpt lat="50.43192" lon="3.89602">
        <ele>75</ele>
        <time>2023-10-22T10:14:56Z</time>
      </trkpt>
      <trkpt lat="50.43202" lon="3.89598">
        <ele>76</ele>
        <time>2023-10-22T10:14:58Z</time>
      </trkpt>
      <trkpt lat="50.43225" lon="3.89602">
        <ele>78</ele>
        <time>2023-10-22T10:15:03Z</time>
      </trkpt>
      <trkpt lat="50.43244" lon="3.89601">
        <ele>80</ele>
        <time>2023-10-22T10:15:08Z</time>
      </trkpt>
      <trkpt lat="50.43241" lon="3.89617">
        <ele>80</ele>
        <time>2023-10-22T10:15:10Z</time>
      </trkpt>
      <trkpt lat="50.43234" lon="3.89627">
        <ele>80</ele>
        <time>2023-10-22T10:15:13Z</time>
      </trkpt>
      <trkpt lat="50.43232" lon="3.89643">
        <ele>80</ele>
        <time>2023-10-22T10:15:15Z</time>
      </trkpt>
      <trkpt lat="50.4321" lon="3.8968">
        <ele>77</ele>
        <time>2023-10-22T10:15:23Z</time>
      </trkpt>
      <trkpt lat="50.43202" lon="3.89704">
        <ele>75</ele>
        <time>2023-10-22T10:15:27Z</time>
      </trkpt>
      <trkpt lat="50.43202" lon="3.89727">
        <ele>74</ele>
        <time>2023-10-22T10:15:30Z</time>
      </trkpt>
      <trkpt lat="50.43208" lon="3.89744">
        <ele>74</ele>
        <time>2023-10-22T10:15:33Z</time>
      </trkpt>
      <trkpt lat="50.43218" lon="3.89755">
        <ele>75</ele>
        <time>2023-10-22T10:15:36Z</time>
      </trkpt>
      <trkpt lat="50.4323" lon="3.8978">
        <ele>74</ele>
        <time>2023-10-22T10:15:40Z</time>
      </trkpt>
      <trkpt lat="50.43227" lon="3.8979">
        <ele>72</ele>
        <time>2023-10-22T10:15:42Z</time>
      </trkpt>
      <trkpt lat="50.43267" lon="3.89802">
        <ele>72</ele>
        <time>2023-10-22T10:15:52Z</time>
      </trkpt>
      <trkpt lat="50.43359" lon="3.89764">
        <ele>72</ele>
        <time>2023-10-22T10:16:14Z</time>
      </trkpt>
      <trkpt lat="50.43402" lon="3.8975">
        <ele>68</ele>
        <time>2023-10-22T10:16:24Z</time>
      </trkpt>
      <trkpt lat="50.43402" lon="3.89775">
        <ele>67</ele>
        <time>2023-10-22T10:16:28Z</time>
      </trkpt>
      <trkpt lat="50.43409" lon="3.89843">
        <ele>65</ele>
        <time>2023-10-22T10:16:38Z</time>
      </trkpt>
      <trkpt lat="50.43446" lon="3.89869">
        <ele>75</ele>
        <time>2023-10-22T10:16:47Z</time>
      </trkpt>
      <trkpt lat="50.4346" lon="3.89825">
        <ele>76</ele>
        <time>2023-10-22T10:16:55Z</time>
      </trkpt>
      <trkpt lat="50.4347" lon="3.89811">
        <ele>77</ele>
        <time>2023-10-22T10:16:58Z</time>
      </trkpt>
      <trkpt lat="50.43486" lon="3.89776">
        <ele>75</ele>
        <time>2023-10-22T10:17:04Z</time>
      </trkpt>
      <trkpt lat="50.43505" lon="3.89765">
        <ele>76</ele>
        <time>2023-10-22T10:17:09Z</time>
      </trkpt>
      <trkpt lat="50.43523" lon="3.89751">
        <ele>78</ele>
        <time>2023-10-22T10:17:14Z</time>
      </trkpt>
      <trkpt lat="50.43549" lon="3.89716">
        <ele>78</ele>
        <time>2023-10-22T10:17:22Z</time>
      </trkpt>
      <trkpt lat="50.43573" lon="3.89701">
        <ele>80</ele>
        <time>2023-10-22T10:17:28Z</time>
      </trkpt>
      <trkpt lat="50.43589" lon="3.897">
        <ele>82</ele>
        <time>2023-10-22T10:17:31Z</time>
      </trkpt>
      <trkpt lat="50.43621" lon="3.89671">
        <ele>75</ele>
        <time>2023-10-22T10:17:40Z</time>
      </trkpt>
      <trkpt lat="50.43631" lon="3.89669">
        <ele>74</ele>
        <time>2023-10-22T10:17:42Z</time>
      </trkpt>
      <trkpt lat="50.43659" lon="3.89707">
        <ele>81</ele>
        <time>2023-10-22T10:17:51Z</time>
      </trkpt>
      <trkpt lat="50.43675" lon="3.8975">
        <ele>86</ele>
        <time>2023-10-22T10:17:58Z</time>
      </trkpt>
      <trkpt lat="50.43706" lon="3.89781">
        <ele>81</ele>
        <time>2023-10-22T10:18:07Z</time>
      </trkpt>
      <trkpt lat="50.43726" lon="3.89813">
        <ele>77</ele>
        <time>2023-10-22T10:18:14Z</time>
      </trkpt>
      <trkpt lat="50.43749" lon="3.89864">
        <ele>72</ele>
        <time>2023-10-22T10:18:23Z</time>
      </trkpt>
      <trkpt lat="50.43761" lon="3.89938">
        <ele>76</ele>
        <time>2023-10-22T10:18:34Z</time>
      </trkpt>
      <trkpt lat="50.43764" lon="3.90033">
        <ele>77</ele>
        <time>2023-10-22T10:18:49Z</time>
      </trkpt>
      <trkpt lat="50.43768" lon="3.90065">
        <ele>76</ele>
        <time>2023-10-22T10:18:53Z</time>
      </trkpt>
      <trkpt lat="50.43759" lon="3.90149">
        <ele>79</ele>
        <time>2023-10-22T10:19:06Z</time>
      </trkpt>
      <trkpt lat="50.43756" lon="3.90157">
        <ele>80</ele>
        <time>2023-10-22T10:19:07Z</time>
      </trkpt>
      <trkpt lat="50.4376" lon="3.90171">
        <ele>79</ele>
        <time>2023-10-22T10:19:10Z</time>
      </trkpt>
      <trkpt lat="50.43775" lon="3.90197">
        <ele>76</ele>
        <time>2023-10-22T10:19:15Z</time>
      </trkpt>
      <trkpt lat="50.43778" lon="3.90218">
        <ele>76</ele>
        <time>2023-10-22T10:19:18Z</time>
      </trkpt>
      <trkpt lat="50.43781" lon="3.9028">
        <ele>74</ele>
        <time>2023-10-22T10:19:27Z</time>
      </trkpt>
      <trkpt lat="50.43776" lon="3.90421">
        <ele>67</ele>
        <time>2023-10-22T10:19:48Z</time>
      </trkpt>
      <trkpt lat="50.43763" lon="3.90442">
        <ele>67</ele>
        <time>2023-10-22T10:19:53Z</time>
      </trkpt>
      <trkpt lat="50.43742" lon="3.90466">
        <ele>68</ele>
        <time>2023-10-22T10:19:59Z</time>
      </trkpt>
      <trkpt lat="50.43719" lon="3.90523">
        <ele>68</ele>
        <time>2023-10-22T10:20:09Z</time>
      </trkpt>
      <trkpt lat="50.43695" lon="3.90561">
        <ele>68</ele>
        <time>2023-10-22T10:20:17Z</time>
      </trkpt>
      <trkpt lat="50.43669" lon="3.90572">
        <ele>69</ele>
        <time>2023-10-22T10:20:23Z</time>
      </trkpt>
      <trkpt lat="50.43646" lon="3.90576">
        <ele>68</ele>
        <time>2023-10-22T10:20:29Z</time>
      </trkpt>
      <trkpt lat="50.43619" lon="3.90574">
        <ele>67</ele>
        <time>2023-10-22T10:20:35Z</time>
      </trkpt>
      <trkpt lat="50.43608" lon="3.90571">
        <ele>67</ele>
        <time>2023-10-22T10:20:37Z</time>
      </trkpt>
      <trkpt lat="50.43606" lon="3.90582">
        <ele>66</ele>
        <time>2023-10-22T10:20:39Z</time>
      </trkpt>
      <trkpt lat="50.43588" lon="3.90603">
        <ele>65</ele>
        <time>2023-10-22T10:20:44Z</time>
      </trkpt>
      <trkpt lat="50.4357" lon="3.90661">
        <ele>63</ele>
        <time>2023-10-22T10:20:54Z</time>
      </trkpt>
      <trkpt lat="50.43571" lon="3.907">
        <ele>62</ele>
        <time>2023-10-22T10:21:00Z</time>
      </trkpt>
      <trkpt lat="50.43565" lon="3.90699">
        <ele>62</ele>
        <time>2023-10-22T10:21:01Z</time>
      </trkpt>
      <trkpt lat="50.43547" lon="3.90709">
        <ele>62</ele>
        <time>2023-10-22T10:21:06Z</time>
      </trkpt>
      <trkpt lat="50.4351" lon="3.90676">
        <ele>62</ele>
        <time>2023-10-22T10:21:16Z</time>
      </trkpt>
      <trkpt lat="50.43466" lon="3.90609">
        <ele>62</ele>
        <time>2023-10-22T10:21:30Z</time>
      </trkpt>
      <trkpt lat="50.43442" lon="3.90564">
        <ele>61</ele>
        <time>2023-10-22T10:21:39Z</time>
      </trkpt>
      <trkpt lat="50.43415" lon="3.90488">
        <ele>60</ele>
        <time>2023-10-22T10:21:52Z</time>
      </trkpt>
      <trkpt lat="50.43405" lon="3.90452">
        <ele>60</ele>
        <time>2023-10-22T10:21:57Z</time>
      </trkpt>
      <trkpt lat="50.43397" lon="3.90456">
        <ele>61</ele>
        <time>2023-10-22T10:21:59Z</time>
      </trkpt>
      <trkpt lat="50.43392" lon="3.90426">
        <ele>61</ele>
        <time>2023-10-22T10:22:04Z</time>
      </trkpt>
      <trkpt lat="50.43385" lon="3.90404">
        <ele>61</ele>
        <time>2023-10-22T10:22:08Z</time>
      </trkpt>
      <trkpt lat="50.43385" lon="3.90392">
        <ele>61</ele>
        <time>2023-10-22T10:22:09Z</time>
      </trkpt>
      <trkpt lat="50.43379" lon="3.90361">
        <ele>61</ele>
        <time>2023-10-22T10:22:14Z</time>
      </trkpt>
      <trkpt lat="50.43374" lon="3.90352">
        <ele>61</ele>
        <time>2023-10-22T10:22:16Z</time>
      </trkpt>
      <trkpt lat="50.43358" lon="3.90302">
        <ele>60</ele>
        <time>2023-10-22T10:22:24Z</time>
      </trkpt>
      <trkpt lat="50.43354" lon="3.90296">
        <ele>60</ele>
        <time>2023-10-22T10:22:26Z</time>
      </trkpt>
      <trkpt lat="50.43351" lon="3.90274">
        <ele>60</ele>
        <time>2023-10-22T10:22:29Z</time>
      </trkpt>
      <trkpt lat="50.43341" lon="3.90262">
        <ele>60</ele>
        <time>2023-10-22T10:22:32Z</time>
      </trkpt>
      <trkpt lat="50.43319" lon="3.90199">
        <ele>60</ele>
        <time>2023-10-22T10:22:43Z</time>
      </trkpt>
      <trkpt lat="50.43308" lon="3.90187">
        <ele>60</ele>
        <time>2023-10-22T10:22:46Z</time>
      </trkpt>
      <trkpt lat="50.43291" lon="3.90134">
        <ele>61</ele>
        <time>2023-10-22T10:22:55Z</time>
      </trkpt>
      <trkpt lat="50.43292" lon="3.90123">
        <ele>61</ele>
        <time>2023-10-22T10:22:56Z</time>
      </trkpt>
      <trkpt lat="50.43289" lon="3.90111">
        <ele>61</ele>
        <time>2023-10-22T10:22:58Z</time>
      </trkpt>
      <trkpt lat="50.43285" lon="3.90102">
        <ele>61</ele>
        <time>2023-10-22T10:23:00Z</time>
      </trkpt>
      <trkpt lat="50.43272" lon="3.90088">
        <ele>61</ele>
        <time>2023-10-22T10:23:03Z</time>
      </trkpt>
      <trkpt lat="50.43249" lon="3.9002">
        <ele>63</ele>
        <time>2023-10-22T10:23:15Z</time>
      </trkpt>
      <trkpt lat="50.43245" lon="3.90005">
        <ele>63</ele>
        <time>2023-10-22T10:23:17Z</time>
      </trkpt>
      <trkpt lat="50.43246" lon="3.89989">
        <ele>63</ele>
        <time>2023-10-22T10:23:20Z</time>
      </trkpt>
      <trkpt lat="50.43242" lon="3.89983">
        <ele>63</ele>
        <time>2023-10-22T10:23:21Z</time>
      </trkpt>
      <trkpt lat="50.43234" lon="3.89979">
        <ele>63</ele>
        <time>2023-10-22T10:23:23Z</time>
      </trkpt>
      <trkpt lat="50.4322" lon="3.89952">
        <ele>64</ele>
        <time>2023-10-22T10:23:28Z</time>
      </trkpt>
      <trkpt lat="50.43216" lon="3.89933">
        <ele>64</ele>
        <time>2023-10-22T10:23:31Z</time>
      </trkpt>
      <trkpt lat="50.43211" lon="3.89923">
        <ele>64</ele>
        <time>2023-10-22T10:23:33Z</time>
      </trkpt>
      <trkpt lat="50.43213" lon="3.89913">
        <ele>64</ele>
        <time>2023-10-22T10:23:35Z</time>
      </trkpt>
      <trkpt lat="50.43209" lon="3.89874">
        <ele>66</ele>
        <time>2023-10-22T10:23:40Z</time>
      </trkpt>
      <trkpt lat="50.43205" lon="3.89866">
        <ele>66</ele>
        <time>2023-10-22T10:23:42Z</time>
      </trkpt>
      <trkpt lat="50.43183" lon="3.89841">
        <ele>66</ele>
        <time>2023-10-22T10:23:48Z</time>
      </trkpt>
      <trkpt lat="50.43166" lon="3.89804">
        <ele>66</ele>
        <time>2023-10-22T10:23:55Z</time>
      </trkpt>
      <trkpt lat="50.43159" lon="3.89801">
        <ele>66</ele>
        <time>2023-10-22T10:23:57Z</time>
      </trkpt>
      <trkpt lat="50.43162" lon="3.89793">
        <ele>67</ele>
        <time>2023-10-22T10:23:58Z</time>
      </trkpt>
      <trkpt lat="50.43156" lon="3.89793">
        <ele>67</ele>
        <time>2023-10-22T10:24:00Z</time>
      </trkpt>
      <trkpt lat="50.43152" lon="3.89779">
        <ele>67</ele>
        <time>2023-10-22T10:24:02Z</time>
      </trkpt>
      <trkpt lat="50.43149" lon="3.89778">
        <ele>67</ele>
        <time>2023-10-22T10:24:03Z</time>
      </trkpt>
      <trkpt lat="50.43174" lon="3.89851">
        <ele>65</ele>
        <time>2023-10-22T10:24:15Z</time>
      </trkpt>
      <trkpt lat="50.43337" lon="3.90282">
        <ele>60</ele>
        <time>2023-10-22T10:25:29Z</time>
      </trkpt>
      <trkpt lat="50.43368" lon="3.90373">
        <ele>61</ele>
        <time>2023-10-22T10:25:45Z</time>
      </trkpt>
      <trkpt lat="50.43387" lon="3.9046">
        <ele>61</ele>
        <time>2023-10-22T10:25:58Z</time>
      </trkpt>
      <trkpt lat="50.43381" lon="3.90467">
        <ele>61</ele>
        <time>2023-10-22T10:26:00Z</time>
      </trkpt>
      <trkpt lat="50.4339" lon="3.905">
        <ele>61</ele>
        <time>2023-10-22T10:26:06Z</time>
      </trkpt>
      <trkpt lat="50.4339" lon="3.90536">
        <ele>62</ele>
        <time>2023-10-22T10:26:11Z</time>
      </trkpt>
      <trkpt lat="50.43395" lon="3.90553">
        <ele>62</ele>
        <time>2023-10-22T10:26:14Z</time>
      </trkpt>
      <trkpt lat="50.43394" lon="3.90564">
        <ele>62</ele>
        <time>2023-10-22T10:26:15Z</time>
      </trkpt>
      <trkpt lat="50.43399" lon="3.90623">
        <ele>63</ele>
        <time>2023-10-22T10:26:24Z</time>
      </trkpt>
      <trkpt lat="50.43395" lon="3.90635">
        <ele>63</ele>
        <time>2023-10-22T10:26:26Z</time>
      </trkpt>
      <trkpt lat="50.43397" lon="3.9065">
        <ele>63</ele>
        <time>2023-10-22T10:26:29Z</time>
      </trkpt>
      <trkpt lat="50.43394" lon="3.90671">
        <ele>63</ele>
        <time>2023-10-22T10:26:32Z</time>
      </trkpt>
      <trkpt lat="50.43397" lon="3.90688">
        <ele>64</ele>
        <time>2023-10-22T10:26:34Z</time>
      </trkpt>
      <trkpt lat="50.43393" lon="3.90706">
        <ele>64</ele>
        <time>2023-10-22T10:26:37Z</time>
      </trkpt>
      <trkpt lat="50.43392" lon="3.90757">
        <ele>64</ele>
        <time>2023-10-22T10:26:45Z</time>
      </trkpt>
      <trkpt lat="50.43389" lon="3.90777">
        <ele>63</ele>
        <time>2023-10-22T10:26:48Z</time>
      </trkpt>
      <trkpt lat="50.43382" lon="3.9079">
        <ele>63</ele>
        <time>2023-10-22T10:26:50Z</time>
      </trkpt>
      <trkpt lat="50.43385" lon="3.90822">
        <ele>63</ele>
        <time>2023-10-22T10:26:55Z</time>
      </trkpt>
      <trkpt lat="50.43378" lon="3.90862">
        <ele>62</ele>
        <time>2023-10-22T10:27:01Z</time>
      </trkpt>
      <trkpt lat="50.43368" lon="3.90889">
        <ele>61</ele>
        <time>2023-10-22T10:27:06Z</time>
      </trkpt>
      <trkpt lat="50.43368" lon="3.90906">
        <ele>61</ele>
        <time>2023-10-22T10:27:09Z</time>
      </trkpt>
      <trkpt lat="50.43364" lon="3.90912">
        <ele>61</ele>
        <time>2023-10-22T10:27:10Z</time>
      </trkpt>
      <trkpt lat="50.43364" lon="3.90923">
        <ele>61</ele>
        <time>2023-10-22T10:27:11Z</time>
      </trkpt>
      <trkpt lat="50.43367" lon="3.90928">
        <ele>61</ele>
        <time>2023-10-22T10:27:12Z</time>
      </trkpt>
      <trkpt lat="50.43342" lon="3.91002">
        <ele>60</ele>
        <time>2023-10-22T10:27:25Z</time>
      </trkpt>
      <trkpt lat="50.43295" lon="3.91108">
        <ele>55</ele>
        <time>2023-10-22T10:27:44Z</time>
      </trkpt>
      <trkpt lat="50.43182" lon="3.9129">
        <ele>50</ele>
        <time>2023-10-22T10:28:22Z</time>
      </trkpt>
      <trkpt lat="50.42694" lon="3.92099">
        <ele>50</ele>
        <time>2023-10-22T10:31:08Z</time>
      </trkpt>
      <trkpt lat="50.42674" lon="3.92065">
        <ele>54</ele>
        <time>2023-10-22T10:31:15Z</time>
      </trkpt>
      <trkpt lat="50.42665" lon="3.92026">
        <ele>57</ele>
        <time>2023-10-22T10:31:21Z</time>
      </trkpt>
      <trkpt lat="50.42661" lon="3.91996">
        <ele>60</ele>
        <time>2023-10-22T10:31:25Z</time>
      </trkpt>
      <trkpt lat="50.42668" lon="3.91973">
        <ele>61</ele>
        <time>2023-10-22T10:31:29Z</time>
      </trkpt>
      <trkpt lat="50.42671" lon="3.91953">
        <ele>62</ele>
        <time>2023-10-22T10:31:32Z</time>
      </trkpt>
      <trkpt lat="50.42665" lon="3.91922">
        <ele>65</ele>
        <time>2023-10-22T10:31:37Z</time>
      </trkpt>
      <trkpt lat="50.42644" lon="3.91891">
        <ele>67</ele>
        <time>2023-10-22T10:31:44Z</time>
      </trkpt>
      <trkpt lat="50.42639" lon="3.91877">
        <ele>67</ele>
        <time>2023-10-22T10:31:46Z</time>
      </trkpt>
      <trkpt lat="50.42648" lon="3.91853">
        <ele>67</ele>
        <time>2023-10-22T10:31:50Z</time>
      </trkpt>
      <trkpt lat="50.42661" lon="3.91829">
        <ele>67</ele>
        <time>2023-10-22T10:31:55Z</time>
      </trkpt>
      <trkpt lat="50.42665" lon="3.91815">
        <ele>66</ele>
        <time>2023-10-22T10:31:57Z</time>
      </trkpt>
      <trkpt lat="50.42664" lon="3.91785">
        <ele>64</ele>
        <time>2023-10-22T10:32:02Z</time>
      </trkpt>
      <trkpt lat="50.42652" lon="3.91768">
        <ele>63</ele>
        <time>2023-10-22T10:32:05Z</time>
      </trkpt>
      <trkpt lat="50.42646" lon="3.91765">
        <ele>64</ele>
        <time>2023-10-22T10:32:07Z</time>
      </trkpt>
      <trkpt lat="50.42643" lon="3.91754">
        <ele>63</ele>
        <time>2023-10-22T10:32:09Z</time>
      </trkpt>
      <trkpt lat="50.42636" lon="3.91747">
        <ele>63</ele>
        <time>2023-10-22T10:32:11Z</time>
      </trkpt>
      <trkpt lat="50.42631" lon="3.91731">
        <ele>62</ele>
        <time>2023-10-22T10:32:13Z</time>
      </trkpt>
      <trkpt lat="50.42611" lon="3.91695">
        <ele>60</ele>
        <time>2023-10-22T10:32:20Z</time>
      </trkpt>
      <trkpt lat="50.426" lon="3.91693">
        <ele>61</ele>
        <time>2023-10-22T10:32:23Z</time>
      </trkpt>
      <trkpt lat="50.42588" lon="3.91685">
        <ele>61</ele>
        <time>2023-10-22T10:32:26Z</time>
      </trkpt>
      <trkpt lat="50.42576" lon="3.91685">
        <ele>62</ele>
        <time>2023-10-22T10:32:29Z</time>
      </trkpt>
      <trkpt lat="50.42503" lon="3.91824">
        <ele>65</ele>
        <time>2023-10-22T10:32:56Z</time>
      </trkpt>
      <trkpt lat="50.42501" lon="3.91848">
        <ele>65</ele>
        <time>2023-10-22T10:32:59Z</time>
      </trkpt>
      <trkpt lat="50.42511" lon="3.91977">
        <ele>65</ele>
        <time>2023-10-22T10:33:19Z</time>
      </trkpt>
      <trkpt lat="50.42527" lon="3.92069">
        <ele>61</ele>
        <time>2023-10-22T10:33:33Z</time>
      </trkpt>
      <trkpt lat="50.42533" lon="3.92077">
        <ele>61</ele>
        <time>2023-10-22T10:33:35Z</time>
      </trkpt>
      <trkpt lat="50.42533" lon="3.92116">
        <ele>59</ele>
        <time>2023-10-22T10:33:40Z</time>
      </trkpt>
      <trkpt lat="50.42544" lon="3.92142">
        <ele>58</ele>
        <time>2023-10-22T10:33:45Z</time>
      </trkpt>
      <trkpt lat="50.42578" lon="3.92172">
        <ele>57</ele>
        <time>2023-10-22T10:33:54Z</time>
      </trkpt>
      <trkpt lat="50.42575" lon="3.92181">
        <ele>56</ele>
        <time>2023-10-22T10:33:56Z</time>
      </trkpt>
      <trkpt lat="50.42578" lon="3.92286">
        <ele>53</ele>
        <time>2023-10-22T10:34:11Z</time>
      </trkpt>
      <trkpt lat="50.42576" lon="3.92306">
        <ele>53</ele>
        <time>2023-10-22T10:34:14Z</time>
      </trkpt>
      <trkpt lat="50.42554" lon="3.92364">
        <ele>53</ele>
        <time>2023-10-22T10:34:24Z</time>
      </trkpt>
      <trkpt lat="50.42513" lon="3.9232">
        <ele>55</ele>
        <time>2023-10-22T10:34:36Z</time>
      </trkpt>
      <trkpt lat="50.42483" lon="3.92304">
        <ele>56</ele>
        <time>2023-10-22T10:34:43Z</time>
      </trkpt>
      <trkpt lat="50.42408" lon="3.92278">
        <ele>58</ele>
        <time>2023-10-22T10:35:01Z</time>
      </trkpt>
      <trkpt lat="50.42366" lon="3.92255">
        <ele>60</ele>
        <time>2023-10-22T10:35:12Z</time>
      </trkpt>
      <trkpt lat="50.42267" lon="3.92222">
        <ele>65</ele>
        <time>2023-10-22T10:35:35Z</time>
      </trkpt>
      <trkpt lat="50.42182" lon="3.92186">
        <ele>69</ele>
        <time>2023-10-22T10:35:56Z</time>
      </trkpt>
      <trkpt lat="50.42097" lon="3.92166">
        <ele>71</ele>
        <time>2023-10-22T10:36:16Z</time>
      </trkpt>
      <trkpt lat="50.41995" lon="3.92157">
        <ele>71</ele>
        <time>2023-10-22T10:36:40Z</time>
      </trkpt>
      <trkpt lat="50.41952" lon="3.92147">
        <ele>70</ele>
        <time>2023-10-22T10:36:50Z</time>
      </trkpt>
      <trkpt lat="50.41878" lon="3.92123">
        <ele>69</ele>
        <time>2023-10-22T10:37:08Z</time>
      </trkpt>
      <trkpt lat="50.41818" lon="3.92099">
        <ele>69</ele>
        <time>2023-10-22T10:37:22Z</time>
      </trkpt>
      <trkpt lat="50.41796" lon="3.92083">
        <ele>69</ele>
        <time>2023-10-22T10:37:28Z</time>
      </trkpt>
      <trkpt lat="50.41788" lon="3.92074">
        <ele>69</ele>
        <time>2023-10-22T10:37:30Z</time>
      </trkpt>
      <trkpt lat="50.41742" lon="3.91982">
        <ele>68</ele>
        <time>2023-10-22T10:37:47Z</time>
      </trkpt>
      <trkpt lat="50.4173" lon="3.91966">
        <ele>68</ele>
        <time>2023-10-22T10:37:51Z</time>
      </trkpt>
      <trkpt lat="50.41692" lon="3.91938">
        <ele>66</ele>
        <time>2023-10-22T10:38:01Z</time>
      </trkpt>
      <trkpt lat="50.41657" lon="3.91918">
        <ele>65</ele>
        <time>2023-10-22T10:38:10Z</time>
      </trkpt>
      <trkpt lat="50.41644" lon="3.91913">
        <ele>64</ele>
        <time>2023-10-22T10:38:13Z</time>
      </trkpt>
      <trkpt lat="50.4166" lon="3.91843">
        <ele>64</ele>
        <time>2023-10-22T10:38:24Z</time>
      </trkpt>
      <trkpt lat="50.41684" lon="3.91765">
        <ele>66</ele>
        <time>2023-10-22T10:38:37Z</time>
      </trkpt>
      <trkpt lat="50.41707" lon="3.91708">
        <ele>67</ele>
        <time>2023-10-22T10:38:47Z</time>
      </trkpt>
      <trkpt lat="50.41839" lon="3.9142">
        <ele>74</ele>
        <time>2023-10-22T10:39:40Z</time>
      </trkpt>
      <trkpt lat="50.41863" lon="3.91385">
        <ele>74</ele>
        <time>2023-10-22T10:39:47Z</time>
      </trkpt>
      <trkpt lat="50.41896" lon="3.9131">
        <ele>74</ele>
        <time>2023-10-22T10:40:01Z</time>
      </trkpt>
      <trkpt lat="50.4196" lon="3.91151">
        <ele>73</ele>
        <time>2023-10-22T10:40:29Z</time>
      </trkpt>
      <trkpt lat="50.42043" lon="3.90987">
        <ele>69</ele>
        <time>2023-10-22T10:41:00Z</time>
      </trkpt>
      <trkpt lat="50.42096" lon="3.90863">
        <ele>65</ele>
        <time>2023-10-22T10:41:22Z</time>
      </trkpt>
      <trkpt lat="50.42118" lon="3.90795">
        <ele>63</ele>
        <time>2023-10-22T10:41:33Z</time>
      </trkpt>
      <trkpt lat="50.42153" lon="3.90653">
        <ele>58</ele>
        <time>2023-10-22T10:41:56Z</time>
      </trkpt>
      <trkpt lat="50.42178" lon="3.9057">
        <ele>57</ele>
        <time>2023-10-22T10:42:10Z</time>
      </trkpt>
      <trkpt lat="50.42206" lon="3.90465">
        <ele>59</ele>
        <time>2023-10-22T10:42:27Z</time>
      </trkpt>
      <trkpt lat="50.42211" lon="3.90457">
        <ele>59</ele>
        <time>2023-10-22T10:42:28Z</time>
      </trkpt>
      <trkpt lat="50.42334" lon="3.90519">
        <ele>55</ele>
        <time>2023-10-22T10:42:59Z</time>
      </trkpt>
      <trkpt lat="50.42384" lon="3.90561">
        <ele>53</ele>
        <time>2023-10-22T10:43:12Z</time>
      </trkpt>
      <trkpt lat="50.42475" lon="3.90649">
        <ele>53</ele>
        <time>2023-10-22T10:43:37Z</time>
      </trkpt>
      <trkpt lat="50.42569" lon="3.90446">
        <ele>63</ele>
        <time>2023-10-22T10:44:14Z</time>
      </trkpt>
      <trkpt lat="50.42564" lon="3.90136">
        <ele>72</ele>
        <time>2023-10-22T10:45:00Z</time>
      </trkpt>
      <trkpt lat="50.42567" lon="3.90078">
        <ele>73</ele>
        <time>2023-10-22T10:45:09Z</time>
      </trkpt>
      <trkpt lat="50.42566" lon="3.89943">
        <ele>72</ele>
        <time>2023-10-22T10:45:29Z</time>
      </trkpt>
      <trkpt lat="50.42561" lon="3.89709">
        <ele>75</ele>
        <time>2023-10-22T10:46:04Z</time>
      </trkpt>
      <trkpt lat="50.42557" lon="3.89695">
        <ele>75</ele>
        <time>2023-10-22T10:46:06Z</time>
      </trkpt>
      <trkpt lat="50.42526" lon="3.89674">
        <ele>75</ele>
        <time>2023-10-22T10:46:14Z</time>
      </trkpt>
      <trkpt lat="50.42482" lon="3.89619">
        <ele>76</ele>
        <time>2023-10-22T10:46:27Z</time>
      </trkpt>
      <trkpt lat="50.42476" lon="3.89616">
        <ele>76</ele>
        <time>2023-10-22T10:46:29Z</time>
      </trkpt>
      <trkpt lat="50.42472" lon="3.89603">
        <ele>76</ele>
        <time>2023-10-22T10:46:31Z</time>
      </trkpt>
      <trkpt lat="50.42494" lon="3.89476">
        <ele>75</ele>
        <time>2023-10-22T10:46:50Z</time>
      </trkpt>
      <trkpt lat="50.42498" lon="3.89379">
        <ele>73</ele>
        <time>2023-10-22T10:47:05Z</time>
      </trkpt>
      <trkpt lat="50.42496" lon="3.89367">
        <ele>72</ele>
        <time>2023-10-22T10:47:07Z</time>
      </trkpt>
      <trkpt lat="50.42486" lon="3.8935">
        <ele>72</ele>
        <time>2023-10-22T10:47:10Z</time>
      </trkpt>
      <trkpt lat="50.4248" lon="3.89347">
        <ele>72</ele>
        <time>2023-10-22T10:47:12Z</time>
      </trkpt>
      <trkpt lat="50.42442" lon="3.89341">
        <ele>73</ele>
        <time>2023-10-22T10:47:20Z</time>
      </trkpt>
      <trkpt lat="50.42426" lon="3.8933">
        <ele>74</ele>
        <time>2023-10-22T10:47:25Z</time>
      </trkpt>
      <trkpt lat="50.4242" lon="3.89302">
        <ele>74</ele>
        <time>2023-10-22T10:47:29Z</time>
      </trkpt>
      <trkpt lat="50.42621" lon="3.89239">
        <ele>69</ele>
        <time>2023-10-22T10:48:17Z</time>
      </trkpt>
      <trkpt lat="50.42667" lon="3.89234">
        <ele>68</ele>
        <time>2023-10-22T10:48:28Z</time>
      </trkpt>
      <trkpt lat="50.42691" lon="3.89224">
        <ele>67</ele>
        <time>2023-10-22T10:48:33Z</time>
      </trkpt>
      <trkpt lat="50.42833" lon="3.89132">
        <ele>64</ele>
        <time>2023-10-22T10:49:09Z</time>
      </trkpt>
      <trkpt lat="50.42988" lon="3.89078">
        <ele>63</ele>
        <time>2023-10-22T10:49:46Z</time>
      </trkpt>
      <trkpt lat="50.42993" lon="3.89079">
        <ele>63</ele>
        <time>2023-10-22T10:49:47Z</time>
      </trkpt>
      <trkpt lat="50.4299" lon="3.89138">
        <ele>64</ele>
        <time>2023-10-22T10:49:56Z</time>
      </trkpt>
      <trkpt lat="50.42992" lon="3.89145">
        <ele>64</ele>
        <time>2023-10-22T10:49:57Z</time>
      </trkpt>
      <trkpt lat="50.42981" lon="3.89163">
        <ele>64</ele>
        <time>2023-10-22T10:50:01Z</time>
      </trkpt>
      <trkpt lat="50.42942" lon="3.89214">
        <ele>64</ele>
        <time>2023-10-22T10:50:13Z</time>
      </trkpt>
      <trkpt lat="50.42924" lon="3.89234">
        <ele>63</ele>
        <time>2023-10-22T10:50:18Z</time>
      </trkpt>
      <trkpt lat="50.4282" lon="3.89328">
        <ele>65</ele>
        <time>2023-10-22T10:50:46Z</time>
      </trkpt>
      <trkpt lat="50.42251" lon="3.8979">
        <ele>73</ele>
        <time>2023-10-22T10:53:16Z</time>
      </trkpt>
      <trkpt lat="50.42258" lon="3.89801">
        <ele>74</ele>
        <time>2023-10-22T10:53:18Z</time>
      </trkpt>
      <trkpt lat="50.42274" lon="3.89814">
        <ele>76</ele>
        <time>2023-10-22T10:53:22Z</time>
      </trkpt>
      <trkpt lat="50.42284" lon="3.89836">
        <ele>78</ele>
        <time>2023-10-22T10:53:26Z</time>
      </trkpt>
      <trkpt lat="50.42288" lon="3.8987">
        <ele>82</ele>
        <time>2023-10-22T10:53:31Z</time>
      </trkpt>
      <trkpt lat="50.42305" lon="3.89895">
        <ele>86</ele>
        <time>2023-10-22T10:53:37Z</time>
      </trkpt>
      <trkpt lat="50.42308" lon="3.89905">
        <ele>87</ele>
        <time>2023-10-22T10:53:39Z</time>
      </trkpt>
      <trkpt lat="50.42281" lon="3.8992">
        <ele>87</ele>
        <time>2023-10-22T10:53:45Z</time>
      </trkpt>
      <trkpt lat="50.42266" lon="3.89921">
        <ele>86</ele>
        <time>2023-10-22T10:53:49Z</time>
      </trkpt>
      <trkpt lat="50.42238" lon="3.89918">
        <ele>83</ele>
        <time>2023-10-22T10:53:55Z</time>
      </trkpt>
      <trkpt lat="50.42223" lon="3.8991">
        <ele>81</ele>
        <time>2023-10-22T10:53:59Z</time>
      </trkpt>
      <trkpt lat="50.42216" lon="3.89914">
        <ele>81</ele>
        <time>2023-10-22T10:54:01Z</time>
      </trkpt>
      <trkpt lat="50.42193" lon="3.89909">
        <ele>78</ele>
        <time>2023-10-22T10:54:06Z</time>
      </trkpt>
      <trkpt lat="50.42187" lon="3.89904">
        <ele>77</ele>
        <time>2023-10-22T10:54:08Z</time>
      </trkpt>
      <trkpt lat="50.42151" lon="3.89909">
        <ele>75</ele>
        <time>2023-10-22T10:54:16Z</time>
      </trkpt>
      <trkpt lat="50.42126" lon="3.89924">
        <ele>76</ele>
        <time>2023-10-22T10:54:22Z</time>
      </trkpt>
      <trkpt lat="50.4211" lon="3.89937">
        <ele>76</ele>
        <time>2023-10-22T10:54:27Z</time>
      </trkpt>
      <trkpt lat="50.4209" lon="3.89947">
        <ele>75</ele>
        <time>2023-10-22T10:54:32Z</time>
      </trkpt>
      <trkpt lat="50.42064" lon="3.89969">
        <ele>74</ele>
        <time>2023-10-22T10:54:38Z</time>
      </trkpt>
      <trkpt lat="50.42055" lon="3.89971">
        <ele>73</ele>
        <time>2023-10-22T10:54:41Z</time>
      </trkpt>
      <trkpt lat="50.4204" lon="3.89983">
        <ele>73</ele>
        <time>2023-10-22T10:54:44Z</time>
      </trkpt>
      <trkpt lat="50.42032" lon="3.89995">
        <ele>73</ele>
        <time>2023-10-22T10:54:47Z</time>
      </trkpt>
      <trkpt lat="50.41984" lon="3.90044">
        <ele>70</ele>
        <time>2023-10-22T10:55:00Z</time>
      </trkpt>
      <trkpt lat="50.41982" lon="3.90053">
        <ele>70</ele>
        <time>2023-10-22T10:55:02Z</time>
      </trkpt>
      <trkpt lat="50.41983" lon="3.90064">
        <ele>70</ele>
        <time>2023-10-22T10:55:04Z</time>
      </trkpt>
      <trkpt lat="50.41987" lon="3.90077">
        <ele>70</ele>
        <time>2023-10-22T10:55:06Z</time>
      </trkpt>
      <trkpt lat="50.41978" lon="3.90084">
        <ele>70</ele>
        <time>2023-10-22T10:55:08Z</time>
      </trkpt>
      <trkpt lat="50.41957" lon="3.90028">
        <ele>68</ele>
        <time>2023-10-22T10:55:18Z</time>
      </trkpt>
      <trkpt lat="50.41806" lon="3.90145">
        <ele>70</ele>
        <time>2023-10-22T10:55:57Z</time>
      </trkpt>
      <trkpt lat="50.4168" lon="3.90227">
        <ele>73</ele>
        <time>2023-10-22T10:56:29Z</time>
      </trkpt>
      <trkpt lat="50.41596" lon="3.90265">
        <ele>73</ele>
        <time>2023-10-22T10:56:49Z</time>
      </trkpt>
      <trkpt lat="50.41473" lon="3.90311">
        <ele>75</ele>
        <time>2023-10-22T10:57:19Z</time>
      </trkpt>
      <trkpt lat="50.41457" lon="3.90319">
        <ele>75</ele>
        <time>2023-10-22T10:57:23Z</time>
      </trkpt>
      <trkpt lat="50.41449" lon="3.90327">
        <ele>75</ele>
        <time>2023-10-22T10:57:25Z</time>
      </trkpt>
      <trkpt lat="50.41446" lon="3.90334">
        <ele>75</ele>
        <time>2023-10-22T10:57:26Z</time>
      </trkpt>
      <trkpt lat="50.41495" lon="3.9032">
        <ele>74</ele>
        <time>2023-10-22T10:57:38Z</time>
      </trkpt>
      <trkpt lat="50.41582" lon="3.90311">
        <ele>72</ele>
        <time>2023-10-22T10:57:58Z</time>
      </trkpt>
      <trkpt lat="50.41661" lon="3.90313">
        <ele>69</ele>
        <time>2023-10-22T10:58:17Z</time>
      </trkpt>
      <trkpt lat="50.41679" lon="3.90293">
        <ele>70</ele>
        <time>2023-10-22T10:58:22Z</time>
      </trkpt>
      <trkpt lat="50.41722" lon="3.9023">
        <ele>71</ele>
        <time>2023-10-22T10:58:36Z</time>
      </trkpt>
      <trkpt lat="50.41522" lon="3.90136">
        <ele>77</ele>
        <time>2023-10-22T10:59:24Z</time>
      </trkpt>
      <trkpt lat="50.41508" lon="3.90124">
        <ele>77</ele>
        <time>2023-10-22T10:59:28Z</time>
      </trkpt>
      <trkpt lat="50.41481" lon="3.90094">
        <ele>78</ele>
        <time>2023-10-22T10:59:36Z</time>
      </trkpt>
      <trkpt lat="50.41344" lon="3.89935">
        <ele>84</ele>
        <time>2023-10-22T11:00:16Z</time>
      </trkpt>
      <trkpt lat="50.41366" lon="3.89889">
        <ele>85</ele>
        <time>2023-10-22T11:00:24Z</time>
      </trkpt>
      <trkpt lat="50.41372" lon="3.89887">
        <ele>84</ele>
        <time>2023-10-22T11:00:26Z</time>
      </trkpt>
      <trkpt lat="50.41386" lon="3.89862">
        <ele>85</ele>
        <time>2023-10-22T11:00:30Z</time>
      </trkpt>
      <trkpt lat="50.41415" lon="3.898">
        <ele>88</ele>
        <time>2023-10-22T11:00:42Z</time>
      </trkpt>
      <trkpt lat="50.41427" lon="3.89737">
        <ele>90</ele>
        <time>2023-10-22T11:00:52Z</time>
      </trkpt>
      <trkpt lat="50.41443" lon="3.8969">
        <ele>90</ele>
        <time>2023-10-22T11:01:00Z</time>
      </trkpt>
      <trkpt lat="50.4144" lon="3.89665">
        <ele>91</ele>
        <time>2023-10-22T11:01:03Z</time>
      </trkpt>
      <trkpt lat="50.41436" lon="3.89654">
        <ele>91</ele>
        <time>2023-10-22T11:01:05Z</time>
      </trkpt>
      <trkpt lat="50.41393" lon="3.89561">
        <ele>94</ele>
        <time>2023-10-22T11:01:22Z</time>
      </trkpt>
      <trkpt lat="50.41522" lon="3.89521">
        <ele>91</ele>
        <time>2023-10-22T11:01:53Z</time>
      </trkpt>
      <trkpt lat="50.41594" lon="3.89481">
        <ele>89</ele>
        <time>2023-10-22T11:02:11Z</time>
      </trkpt>
      <trkpt lat="50.41734" lon="3.89447">
        <ele>87</ele>
        <time>2023-10-22T11:02:44Z</time>
      </trkpt>
      <trkpt lat="50.4193" lon="3.89355">
        <ele>85</ele>
        <time>2023-10-22T11:03:32Z</time>
      </trkpt>
      <trkpt lat="50.41535" lon="3.88873">
        <ele>101</ele>
        <time>2023-10-22T11:05:29Z</time>
      </trkpt>
      <trkpt lat="50.41555" lon="3.88849">
        <ele>100</ele>
        <time>2023-10-22T11:05:35Z</time>
      </trkpt>
      <trkpt lat="50.41576" lon="3.88829">
        <ele>100</ele>
        <time>2023-10-22T11:05:40Z</time>
      </trkpt>
      <trkpt lat="50.41726" lon="3.88701">
        <ele>94</ele>
        <time>2023-10-22T11:06:20Z</time>
      </trkpt>
      <trkpt lat="50.41741" lon="3.88682">
        <ele>93</ele>
        <time>2023-10-22T11:06:25Z</time>
      </trkpt>
      <trkpt lat="50.41764" lon="3.88632">
        <ele>92</ele>
        <time>2023-10-22T11:06:34Z</time>
      </trkpt>
      <trkpt lat="50.41832" lon="3.88458">
        <ele>89</ele>
        <time>2023-10-22T11:07:04Z</time>
      </trkpt>
      <trkpt lat="50.4184" lon="3.88446">
        <ele>88</ele>
        <time>2023-10-22T11:07:07Z</time>
      </trkpt>
      <trkpt lat="50.41855" lon="3.88434">
        <ele>88</ele>
        <time>2023-10-22T11:07:11Z</time>
      </trkpt>
      <trkpt lat="50.41866" lon="3.8843">
        <ele>87</ele>
        <time>2023-10-22T11:07:13Z</time>
      </trkpt>
      <trkpt lat="50.41792" lon="3.88385">
        <ele>90</ele>
        <time>2023-10-22T11:07:32Z</time>
      </trkpt>
      <trkpt lat="50.41767" lon="3.88363">
        <ele>90</ele>
        <time>2023-10-22T11:07:39Z</time>
      </trkpt>
      <trkpt lat="50.41759" lon="3.88366">
        <ele>91</ele>
        <time>2023-10-22T11:07:40Z</time>
      </trkpt>
      <trkpt lat="50.41697" lon="3.88332">
        <ele>95</ele>
        <time>2023-10-22T11:07:56Z</time>
      </trkpt>
      <trkpt lat="50.41561" lon="3.88269">
        <ele>101</ele>
        <time>2023-10-22T11:08:29Z</time>
      </trkpt>
      <trkpt lat="50.41489" lon="3.88266">
        <ele>107</ele>
        <time>2023-10-22T11:08:46Z</time>
      </trkpt>
      <trkpt lat="50.41409" lon="3.88248">
        <ele>114</ele>
        <time>2023-10-22T11:09:05Z</time>
      </trkpt>
      <trkpt lat="50.41293" lon="3.88235">
        <ele>114</ele>
        <time>2023-10-22T11:09:32Z</time>
      </trkpt>
      <trkpt lat="50.41235" lon="3.88224">
        <ele>112</ele>
        <time>2023-10-22T11:09:45Z</time>
      </trkpt>
      <trkpt lat="50.41189" lon="3.88219">
        <ele>109</ele>
        <time>2023-10-22T11:09:56Z</time>
      </trkpt>
      <trkpt lat="50.41167" lon="3.88213">
        <ele>108</ele>
        <time>2023-10-22T11:10:01Z</time>
      </trkpt>
      <trkpt lat="50.41132" lon="3.88197">
        <ele>108</ele>
        <time>2023-10-22T11:10:10Z</time>
      </trkpt>
      <trkpt lat="50.41234" lon="3.88064">
        <ele>103</ele>
        <time>2023-10-22T11:10:41Z</time>
      </trkpt>
      <trkpt lat="50.41294" lon="3.88014">
        <ele>102</ele>
        <time>2023-10-22T11:10:57Z</time>
      </trkpt>
      <trkpt lat="50.4133" lon="3.88001">
        <ele>101</ele>
        <time>2023-10-22T11:11:05Z</time>
      </trkpt>
      <trkpt lat="50.41362" lon="3.87993">
        <ele>100</ele>
        <time>2023-10-22T11:11:13Z</time>
      </trkpt>
      <trkpt lat="50.41395" lon="3.87994">
        <ele>99</ele>
        <time>2023-10-22T11:11:21Z</time>
      </trkpt>
      <trkpt lat="50.41457" lon="3.88006">
        <ele>98</ele>
        <time>2023-10-22T11:11:35Z</time>
      </trkpt>
      <trkpt lat="50.41494" lon="3.88027">
        <ele>97</ele>
        <time>2023-10-22T11:11:44Z</time>
      </trkpt>
      <trkpt lat="50.41535" lon="3.88062">
        <ele>96</ele>
        <time>2023-10-22T11:11:55Z</time>
      </trkpt>
      <trkpt lat="50.41674" lon="3.88241">
        <ele>94</ele>
        <time>2023-10-22T11:12:37Z</time>
      </trkpt>
      <trkpt lat="50.41713" lon="3.88144">
        <ele>90</ele>
        <time>2023-10-22T11:12:54Z</time>
      </trkpt>
      <trkpt lat="50.41756" lon="3.87939">
        <ele>88</ele>
        <time>2023-10-22T11:13:27Z</time>
      </trkpt>
      <trkpt lat="50.41752" lon="3.87928">
        <ele>88</ele>
        <time>2023-10-22T11:13:28Z</time>
      </trkpt>
      <trkpt lat="50.41724" lon="3.87886">
        <ele>88</ele>
        <time>2023-10-22T11:13:37Z</time>
      </trkpt>
      <trkpt lat="50.41694" lon="3.87832">
        <ele>88</ele>
        <time>2023-10-22T11:13:48Z</time>
      </trkpt>
      <trkpt lat="50.41618" lon="3.87666">
        <ele>87</ele>
        <time>2023-10-22T11:14:19Z</time>
      </trkpt>
      <trkpt lat="50.4155" lon="3.87536">
        <ele>89</ele>
        <time>2023-10-22T11:14:44Z</time>
      </trkpt>
      <trkpt lat="50.41558" lon="3.8753">
        <ele>89</ele>
        <time>2023-10-22T11:14:46Z</time>
      </trkpt>
      <trkpt lat="50.4156" lon="3.87522">
        <ele>89</ele>
        <time>2023-10-22T11:14:47Z</time>
      </trkpt>
      <trkpt lat="50.41558" lon="3.87491">
        <ele>89</ele>
        <time>2023-10-22T11:14:52Z</time>
      </trkpt>
      <trkpt lat="50.41545" lon="3.87487">
        <ele>90</ele>
        <time>2023-10-22T11:14:55Z</time>
      </trkpt>
      <trkpt lat="50.41566" lon="3.87365">
        <ele>95</ele>
        <time>2023-10-22T11:15:13Z</time>
      </trkpt>
      <trkpt lat="50.41426" lon="3.87315">
        <ele>94</ele>
        <time>2023-10-22T11:15:47Z</time>
      </trkpt>
      <trkpt lat="50.41407" lon="3.87299">
        <ele>93</ele>
        <time>2023-10-22T11:15:52Z</time>
      </trkpt>
      <trkpt lat="50.41335" lon="3.8718">
        <ele>93</ele>
        <time>2023-10-22T11:16:16Z</time>
      </trkpt>
      <trkpt lat="50.41333" lon="3.87174">
        <ele>93</ele>
        <time>2023-10-22T11:16:17Z</time>
      </trkpt>
      <trkpt lat="50.41332" lon="3.87132">
        <ele>93</ele>
        <time>2023-10-22T11:16:24Z</time>
      </trkpt>
      <trkpt lat="50.41326" lon="3.87117">
        <ele>93</ele>
        <time>2023-10-22T11:16:26Z</time>
      </trkpt>
      <trkpt lat="50.41302" lon="3.87076">
        <ele>93</ele>
        <time>2023-10-22T11:16:35Z</time>
      </trkpt>
      <trkpt lat="50.41339" lon="3.87003">
        <ele>92</ele>
        <time>2023-10-22T11:16:48Z</time>
      </trkpt>
      <trkpt lat="50.41344" lon="3.87003">
        <ele>92</ele>
        <time>2023-10-22T11:16:50Z</time>
      </trkpt>
      <trkpt lat="50.41429" lon="3.86941">
        <ele>96</ele>
        <time>2023-10-22T11:17:12Z</time>
      </trkpt>
      <trkpt lat="50.41454" lon="3.86917">
        <ele>101</ele>
        <time>2023-10-22T11:17:18Z</time>
      </trkpt>
      <trkpt lat="50.4149" lon="3.86866">
        <ele>103</ele>
        <time>2023-10-22T11:17:30Z</time>
      </trkpt>
      <trkpt lat="50.41556" lon="3.8674">
        <ele>94</ele>
        <time>2023-10-22T11:17:54Z</time>
      </trkpt>
      <trkpt lat="50.41578" lon="3.86709">
        <ele>93</ele>
        <time>2023-10-22T11:18:01Z</time>
      </trkpt>
      <trkpt lat="50.41632" lon="3.86653">
        <ele>86</ele>
        <time>2023-10-22T11:18:16Z</time>
      </trkpt>
      <trkpt lat="50.41729" lon="3.86559">
        <ele>82</ele>
        <time>2023-10-22T11:18:43Z</time>
      </trkpt>
      <trkpt lat="50.4181" lon="3.86684">
        <ele>82</ele>
        <time>2023-10-22T11:19:09Z</time>
      </trkpt>
      <trkpt lat="50.41837" lon="3.86718">
        <ele>83</ele>
        <time>2023-10-22T11:19:17Z</time>
      </trkpt>
      <trkpt lat="50.41943" lon="3.86784">
        <ele>81</ele>
        <time>2023-10-22T11:19:44Z</time>
      </trkpt>
      <trkpt lat="50.41959" lon="3.86804">
        <ele>81</ele>
        <time>2023-10-22T11:19:49Z</time>
      </trkpt>
    </trkseg>
  </trk>
</gpx>